Time,TemperatureF,DewpointF,PressureIn,WindDirection,WindDirectionDegrees,WindSpeedMPH,WindSpeedGustMPH,Humidity,HourlyPrecipIn,Conditions,Clouds,dailyrainin,SoftwareType,DateUTC
2013-02-14 00:02:00,32.0,29.0,29.94,NW,315,5.0,12.0,90,0.00,,,0.10,,2013-02-14 05:02:00,
2013-02-14 00:11:00,32.0,29.0,29.94,NW,315,5.0,12.0,90,0.00,,,0.10,,2013-02-14 05:11:00,
2013-02-14 00:22:00,32.0,29.0,29.94,NW,315,5.0,12.0,90,0.00,,,0.10,,2013-02-14 05:22:00,
2013-02-14 00:32:00,32.0,29.0,29.94,NW,315,5.0,12.0,90,0.00,,,0.10,,2013-02-14 05:32:00,
2013-02-14 00:40:00,32.0,29.0,29.97,NW,315,2.0,9.0,88,0.00,,,0.10,,2013-02-14 05:40:00,
2013-02-14 01:02:00,32.0,29.0,29.97,NW,315,2.0,9.0,88,0.00,,,0.10,,2013-02-14 06:02:00,
2013-02-14 01:11:00,32.0,29.0,29.97,NW,315,2.0,9.0,88,0.00,,,0.10,,2013-02-14 06:11:00,
2013-02-14 01:22:00,32.0,29.0,29.97,NW,315,2.0,9.0,88,0.00,,,0.10,,2013-02-14 06:22:00,
2013-02-14 01:32:00,32.0,29.0,29.97,NW,315,2.0,9.0,88,0.00,,,0.10,,2013-02-14 06:32:00,
2013-02-14 01:40:00,31.0,31.0,29.98,North,0,255.0,255.0,100,0.00,,,0.10,,2013-02-14 06:40:00,
2013-02-14 02:01:00,31.0,31.0,29.98,North,0,255.0,255.0,100,0.00,,,0.10,,2013-02-14 07:01:00,
2013-02-14 02:11:00,31.0,31.0,29.98,North,0,255.0,255.0,100,0.00,,,0.10,,2013-02-14 07:11:00,
2013-02-14 02:21:00,31.0,31.0,29.98,North,0,255.0,255.0,100,0.00,,,0.10,,2013-02-14 07:21:00,
2013-02-14 02:32:00,31.0,31.0,29.98,North,0,255.0,255.0,100,0.00,,,0.10,,2013-02-14 07:32:00,
2013-02-14 02:40:00,31.0,31.0,30.02,North,0,255.0,255.0,100,0.00,,,0.10,,2013-02-14 07:40:00,
2013-02-14 03:01:00,31.0,31.0,30.02,North,0,255.0,255.0,100,0.00,,,0.10,,2013-02-14 08:01:00,
2013-02-14 03:11:00,31.0,31.0,30.02,North,0,255.0,255.0,100,0.00,,,0.10,,2013-02-14 08:11:00,
2013-02-14 03:22:00,31.0,31.0,30.02,North,0,255.0,255.0,100,0.00,,,0.10,,2013-02-14 08:22:00,
2013-02-14 03:32:00,31.0,31.0,30.02,North,0,255.0,255.0,100,0.00,,,0.10,,2013-02-14 08:32:00,
2013-02-14 03:40:00,31.0,31.0,30.03,North,0,255.0,255.0,100,0.00,,,0.10,,2013-02-14 08:40:00,
2013-02-14 04:02:00,31.0,31.0,30.03,North,0,255.0,255.0,100,0.00,,,0.10,,2013-02-14 09:02:00,
2013-02-14 04:11:00,31.0,31.0,30.03,North,0,255.0,255.0,100,0.00,,,0.10,,2013-02-14 09:11:00,
2013-02-14 04:21:00,31.0,31.0,30.03,North,0,255.0,255.0,100,0.00,,,0.10,,2013-02-14 09:21:00,
2013-02-14 04:32:00,31.0,31.0,30.03,North,0,255.0,255.0,100,0.00,,,0.10,,2013-02-14 09:32:00,
2013-02-14 04:40:00,31.0,31.0,30.02,North,0,255.0,255.0,100,0.00,,,0.10,,2013-02-14 09:40:00,
2013-02-14 05:02:00,31.0,31.0,30.02,North,0,255.0,255.0,100,0.00,,,0.10,,2013-02-14 10:02:00,
2013-02-14 05:11:00,31.0,31.0,30.02,North,0,255.0,255.0,100,0.00,,,0.10,,2013-02-14 10:11:00,
2013-02-14 05:21:00,31.0,31.0,30.02,North,0,255.0,255.0,100,0.00,,,0.10,,2013-02-14 10:21:00,
2013-02-14 05:32:00,31.0,31.0,30.02,North,0,255.0,255.0,100,0.00,,,0.10,,2013-02-14 10:32:00,
2013-02-14 05:40:00,31.0,31.0,30.04,North,0,255.0,255.0,100,0.00,,,0.10,,2013-02-14 10:40:00,
2013-02-14 06:02:00,31.0,31.0,30.04,North,0,255.0,255.0,100,0.00,,,0.10,,2013-02-14 11:02:00,
2013-02-14 06:11:00,31.0,31.0,30.04,North,0,255.0,255.0,100,0.00,,,0.10,,2013-02-14 11:11:00,
2013-02-14 06:22:00,31.0,31.0,30.04,North,0,255.0,255.0,100,0.00,,,0.10,,2013-02-14 11:22:00,
2013-02-14 06:32:00,31.0,31.0,30.04,North,0,255.0,255.0,100,0.00,,,0.10,,2013-02-14 11:32:00,
2013-02-14 07:02:00,31.0,31.0,30.06,North,0,255.0,255.0,100,0.00,,,0.10,,2013-02-14 12:02:00,
2013-02-14 07:12:00,31.0,31.0,30.06,North,0,255.0,255.0,100,0.00,,,0.10,,2013-02-14 12:12:00,
2013-02-14 07:22:00,31.0,31.0,30.06,North,0,255.0,255.0,100,0.00,,,0.10,,2013-02-14 12:22:00,
2013-02-14 07:32:00,31.0,31.0,30.06,North,0,255.0,255.0,100,0.00,,,0.10,,2013-02-14 12:32:00,
2013-02-14 08:02:00,31.0,31.0,30.08,North,0,255.0,255.0,100,0.00,,,0.10,,2013-02-14 13:02:00,
2013-02-14 09:40:00,31.0,24.0,30.15,North,0,5.0,8.0,75,0.00,,,0.06,,2013-02-14 14:40:00,
2013-02-14 10:02:00,31.0,24.0,30.15,North,0,5.0,8.0,75,0.00,,,0.06,,2013-02-14 15:02:00,
2013-02-14 10:11:00,31.0,24.0,30.15,North,0,5.0,8.0,75,0.00,,,0.06,,2013-02-14 15:11:00,
2013-02-14 10:22:00,31.0,24.0,30.15,North,0,5.0,8.0,75,0.00,,,0.06,,2013-02-14 15:22:00,
2013-02-14 10:32:00,31.0,24.0,30.15,North,0,5.0,8.0,75,0.00,,,0.06,,2013-02-14 15:32:00,
2013-02-14 10:40:00,34.0,25.0,30.16,NNE,23,1.0,7.0,70,0.00,,,0.05,,2013-02-14 15:40:00,
2013-02-14 11:02:00,34.0,25.0,30.16,NNE,23,1.0,7.0,70,0.00,,,0.05,,2013-02-14 16:02:00,
2013-02-14 11:11:00,34.0,25.0,30.16,NNE,23,1.0,7.0,70,0.00,,,0.05,,2013-02-14 16:11:00,
2013-02-14 11:22:00,34.0,25.0,30.16,NNE,23,1.0,7.0,70,0.00,,,0.05,,2013-02-14 16:22:00,
2013-02-14 11:32:00,34.0,25.0,30.16,NNE,23,1.0,7.0,70,0.00,,,0.05,,2013-02-14 16:32:00,
2013-02-14 11:40:00,36.0,25.0,30.16,WNW,293,0.0,5.0,65,0.00,,,0.05,,2013-02-14 16:40:00,
2013-02-14 12:01:00,36.0,25.0,30.16,WNW,293,0.0,5.0,65,0.00,,,0.05,,2013-02-14 17:01:00,
2013-02-14 12:11:00,36.0,25.0,30.16,WNW,293,0.0,5.0,65,0.00,,,0.05,,2013-02-14 17:11:00,
2013-02-14 12:21:00,36.0,25.0,30.16,WNW,293,0.0,5.0,65,0.00,,,0.05,,2013-02-14 17:21:00,
2013-02-14 12:32:00,36.0,25.0,30.16,WNW,293,0.0,5.0,65,0.00,,,0.05,,2013-02-14 17:32:00,
2013-02-14 12:40:00,39.0,26.0,30.16,North,0,2.0,6.0,60,0.00,,,0.05,,2013-02-14 17:40:00,
2013-02-14 13:02:00,39.0,26.0,30.16,North,0,2.0,6.0,60,0.00,,,0.05,,2013-02-14 18:02:00,
2013-02-14 13:11:00,39.0,26.0,30.16,North,0,2.0,6.0,60,0.00,,,0.05,,2013-02-14 18:11:00,
2013-02-14 13:23:00,39.0,26.0,30.16,North,0,2.0,6.0,60,0.00,,,0.05,,2013-02-14 18:23:00,
2013-02-14 13:32:00,39.0,26.0,30.16,North,0,2.0,6.0,60,0.00,,,0.05,,2013-02-14 18:32:00,
2013-02-14 13:40:00,42.0,27.0,30.13,NNW,338,3.0,10.0,54,0.00,,,0.05,,2013-02-14 18:40:00,
2013-02-14 14:02:00,42.0,27.0,30.13,NNW,338,3.0,10.0,54,0.00,,,0.05,,2013-02-14 19:02:00,
2013-02-14 14:11:00,42.0,27.0,30.13,NNW,338,3.0,10.0,54,0.00,,,0.05,,2013-02-14 19:11:00,
2013-02-14 14:22:00,42.0,27.0,30.13,NNW,338,3.0,10.0,54,0.00,,,0.05,,2013-02-14 19:22:00,
2013-02-14 14:32:00,42.0,27.0,30.13,NNW,338,3.0,10.0,54,0.00,,,0.05,,2013-02-14 19:32:00,
2013-02-14 14:40:00,45.0,26.0,30.11,North,0,1.0,15.0,47,0.00,,,0.05,,2013-02-14 19:40:00,
2013-02-14 15:01:00,45.0,26.0,30.11,North,0,1.0,15.0,47,0.00,,,0.05,,2013-02-14 20:01:00,
2013-02-14 15:11:00,45.0,26.0,30.11,North,0,1.0,15.0,47,0.00,,,0.05,,2013-02-14 20:11:00,
2013-02-14 15:21:00,45.0,26.0,30.11,North,0,1.0,15.0,47,0.00,,,0.05,,2013-02-14 20:21:00,
2013-02-14 15:32:00,45.0,26.0,30.11,North,0,1.0,15.0,47,0.00,,,0.05,,2013-02-14 20:32:00,
2013-02-14 15:40:00,47.0,26.0,30.11,SW,225,2.0,5.0,43,0.00,,,0.04,,2013-02-14 20:40:00,
2013-02-14 16:02:00,47.0,26.0,30.11,SW,225,2.0,5.0,43,0.00,,,0.04,,2013-02-14 21:02:00,
2013-02-14 16:11:00,47.0,26.0,30.11,SW,225,2.0,5.0,43,0.00,,,0.04,,2013-02-14 21:11:00,
2013-02-14 16:22:00,47.0,26.0,30.11,SW,225,2.0,5.0,43,0.00,,,0.04,,2013-02-14 21:22:00,
2013-02-14 16:32:00,47.0,26.0,30.11,SW,225,2.0,5.0,43,0.00,,,0.04,,2013-02-14 21:32:00,
2013-02-14 16:40:00,44.0,27.0,30.10,West,270,0.0,3.0,50,0.00,,,0.04,,2013-02-14 21:40:00,
2013-02-14 17:02:00,44.0,27.0,30.10,West,270,0.0,3.0,50,0.00,,,0.04,,2013-02-14 22:02:00,
2013-02-14 17:11:00,44.0,27.0,30.10,West,270,0.0,3.0,50,0.00,,,0.04,,2013-02-14 22:11:00,
2013-02-14 17:21:00,44.0,27.0,30.10,West,270,0.0,3.0,50,0.00,,,0.04,,2013-02-14 22:21:00,
2013-02-14 17:32:00,44.0,27.0,30.10,West,270,0.0,3.0,50,0.00,,,0.04,,2013-02-14 22:32:00,
2013-02-14 17:40:00,42.0,26.0,30.12,NNW,338,0.0,5.0,52,0.00,,,0.03,,2013-02-14 22:40:00,
2013-02-14 18:01:00,42.0,26.0,30.12,NNW,338,0.0,5.0,52,0.00,,,0.03,,2013-02-14 23:01:00,
2013-02-14 18:11:00,42.0,26.0,30.12,NNW,338,0.0,5.0,52,0.00,,,0.03,,2013-02-14 23:11:00,
2013-02-14 18:21:00,42.0,26.0,30.12,NNW,338,0.0,5.0,52,0.00,,,0.03,,2013-02-14 23:21:00,
2013-02-14 18:32:00,42.0,26.0,30.12,NNW,338,0.0,5.0,52,0.00,,,0.03,,2013-02-14 23:32:00,
2013-02-14 18:40:00,38.0,26.0,30.13,ENE,68,0.0,1.0,62,0.00,,,0.01,,2013-02-14 23:40:00,
2013-02-14 19:02:00,38.0,26.0,30.13,ENE,68,0.0,1.0,62,0.00,,,0.01,,2013-02-15 00:02:00,
2013-02-14 19:11:00,38.0,26.0,30.13,ENE,68,0.0,1.0,62,0.00,,,0.01,,2013-02-15 00:11:00,
2013-02-14 19:22:00,38.0,26.0,30.13,ENE,68,0.0,1.0,62,0.00,,,0.01,,2013-02-15 00:22:00,
2013-02-14 19:32:00,38.0,26.0,30.13,ENE,68,0.0,1.0,62,0.00,,,0.01,,2013-02-15 00:32:00,
2013-02-14 19:40:00,34.0,25.0,30.15,ENE,68,0.0,1.0,70,0.00,,,0.00,,2013-02-15 00:40:00,
2013-02-14 20:02:00,34.0,25.0,30.15,ENE,68,0.0,1.0,70,0.00,,,0.00,,2013-02-15 01:02:00,
2013-02-14 20:11:00,34.0,25.0,30.15,ENE,68,0.0,1.0,70,0.00,,,0.00,,2013-02-15 01:11:00,
2013-02-14 20:21:00,34.0,25.0,30.15,ENE,68,0.0,1.0,70,0.00,,,0.00,,2013-02-15 01:21:00,
2013-02-14 20:32:00,34.0,25.0,30.15,ENE,68,0.0,1.0,70,0.00,,,0.00,,2013-02-15 01:32:00,
2013-02-14 20:40:00,33.0,25.0,30.15,SSE,158,0.0,0.0,73,0.00,,,0.00,,2013-02-15 01:40:00,
2013-02-14 21:01:00,33.0,25.0,30.15,SSE,158,0.0,0.0,73,0.00,,,0.00,,2013-02-15 02:01:00,
2013-02-14 21:11:00,33.0,25.0,30.15,SSE,158,0.0,0.0,73,0.00,,,0.00,,2013-02-15 02:11:00,
2013-02-14 21:21:00,33.0,25.0,30.15,SSE,158,0.0,0.0,73,0.00,,,0.00,,2013-02-15 02:21:00,
2013-02-14 21:32:00,33.0,25.0,30.15,SSE,158,0.0,0.0,73,0.00,,,0.00,,2013-02-15 02:32:00,
2013-02-14 21:40:00,30.0,25.0,30.15,SSE,158,0.0,1.0,83,0.00,,,0.00,,2013-02-15 02:40:00,
2013-02-14 22:02:00,30.0,25.0,30.15,SSE,158,0.0,1.0,83,0.00,,,0.00,,2013-02-15 03:02:00,
2013-02-14 22:11:00,30.0,25.0,30.15,SSE,158,0.0,1.0,83,0.00,,,0.00,,2013-02-15 03:11:00,
2013-02-14 22:22:00,30.0,25.0,30.15,SSE,158,0.0,1.0,83,0.00,,,0.00,,2013-02-15 03:22:00,
2013-02-14 22:32:00,30.0,25.0,30.15,SSE,158,0.0,1.0,83,0.00,,,0.00,,2013-02-15 03:32:00,
2013-02-14 22:40:00,29.0,26.0,30.17,SSE,158,0.0,1.0,87,0.00,,,0.00,,2013-02-15 03:40:00,
2013-02-14 23:02:00,29.0,26.0,30.17,SSE,158,0.0,1.0,87,0.00,,,0.00,,2013-02-15 04:02:00,
2013-02-14 23:11:00,29.0,26.0,30.17,SSE,158,0.0,1.0,87,0.00,,,0.00,,2013-02-15 04:11:00,
2013-02-14 23:21:00,29.0,26.0,30.17,SSE,158,0.0,1.0,87,0.00,,,0.00,,2013-02-15 04:21:00,
2013-02-14 23:32:00,29.0,26.0,30.17,SSE,158,0.0,1.0,87,0.00,,,0.00,,2013-02-15 04:32:00,
2013-02-14 23:40:00,28.0,25.0,30.17,SSE,158,0.0,0.0,87,0.00,,,0.00,,2013-02-15 04:40:00,